RYR49CP LGKR-LICR

Flight info

Callsign RYR49CP
Flight time 0h 46m
Altitude 20000
Route LATAN L869 PEROS
Aircraft B38M/M-SDE1FGHILORVWXY/HB1

Departure

Time 2026-04-23 17:12
Airport Corfu Ioannis Kapodistrias International Airport (LGKR)

Arrival

Time 2026-04-23 17:59
Airport Reggio Calabria Airport (LICR)
Time Latitude Longitude Altitude Speed Heading
2026-04-23 16:20 39.61084 19.90797 17 ft 0 kts 253°
2026-04-23 16:50 39.61086 19.90805 17 ft 1 kts 260°
2026-04-23 16:51 39.61086 19.90806 17 ft 0 kts 262°
2026-04-23 16:51 39.61086 19.90834 17 ft 0 kts 346°
2026-04-23 16:55 39.61087 19.90834 17 ft 1 kts 348°
2026-04-23 16:55 39.61135 19.90839 17 ft 10 kts 19°
2026-04-23 16:55 39.61153 19.90851 17 ft 2 kts 30°
2026-04-23 16:55 39.61159 19.90855 17 ft 0 kts 31°
2026-04-23 17:08 39.61199 19.90893 17 ft 16 kts 39°
2026-04-23 17:08 39.61207 19.90944 18 ft 4 kts 117°
2026-04-23 17:08 39.61155 19.90967 18 ft 23 kts 172°
2026-04-23 17:08 39.60856 19.91042 17 ft 53 kts 168°
2026-04-23 17:09 39.60477 19.91138 17 ft 59 kts 169°
2026-04-23 17:09 39.60072 19.91247 18 ft 60 kts 168°
2026-04-23 17:09 39.59666 19.91349 18 ft 54 kts 169°
2026-04-23 17:09 39.59352 19.91430 14 ft 33 kts 169°
2026-04-23 17:10 39.59181 19.91451 17 ft 15 kts 166°
2026-04-23 17:10 39.59192 19.91430 17 ft 6 kts 152°
2026-04-23 17:10 39.59158 19.91477 15 ft 4 kts 92°
2026-04-23 17:10 39.59171 19.91502 17 ft 3 kts 29°
2026-04-23 17:11 39.59201 19.91495 16 ft 5 kts 323°
2026-04-23 17:11 39.59246 19.91461 15 ft 2 kts 342°
2026-04-23 17:11 39.59255 19.91459 15 ft 3 kts 346°
2026-04-23 17:11 39.59289 19.91449 16 ft 11 kts 348°
2026-04-23 17:12 39.59677 19.91348 16 ft 99 kts 348°
2026-04-23 17:12 39.60574 19.91123 88 ft 159 kts 346°
2026-04-23 17:12 39.61731 19.90844 775 ft 172 kts 347°
2026-04-23 17:12 39.62891 19.90573 1821 ft 168 kts 347°
2026-04-23 17:13 39.63990 19.90125 2760 ft 168 kts 335°
2026-04-23 17:13 39.65002 19.89203 3366 ft 188 kts 318°
2026-04-23 17:13 39.65882 19.87769 3854 ft 225 kts 299°
2026-04-23 17:13 39.66257 19.85649 4427 ft 257 kts 274°
2026-04-23 17:14 39.66122 19.83384 5888 ft 233 kts 261°
2026-04-23 17:14 39.65655 19.81412 7255 ft 237 kts 249°
2026-04-23 17:14 39.64775 19.79512 8061 ft 248 kts 243°
2026-04-23 17:14 39.63894 19.77623 9295 ft 243 kts 245°
2026-04-23 17:15 39.63067 19.75707 10319 ft 243 kts 245°
2026-04-23 17:15 39.62234 19.73790 11282 ft 245 kts 245°
2026-04-23 17:15 39.61380 19.71839 12128 ft 251 kts 245°
2026-04-23 17:15 39.60511 19.69862 13004 ft 255 kts 245°
2026-04-23 17:16 39.59624 19.67849 13875 ft 259 kts 245°
2026-04-23 17:16 39.58722 19.65804 14695 ft 261 kts 245°
2026-04-23 17:16 39.57800 19.63715 15349 ft 275 kts 245°
2026-04-23 17:16 39.56815 19.61487 15744 ft 295 kts 245°
2026-04-23 17:17 39.55762 19.59110 16082 ft 315 kts 245°
2026-04-23 17:17 39.54650 19.56601 16367 ft 335 kts 245°
2026-04-23 17:17 39.53459 19.53915 16728 ft 350 kts 245°
2026-04-23 17:17 39.52228 19.51143 17248 ft 359 kts 245°
2026-04-23 17:18 39.49713 19.45482 18632 ft 366 kts 245°
2026-04-23 17:18 39.48452 19.42596 19229 ft 367 kts 249°
2026-04-23 17:18 39.47612 19.39482 19594 ft 367 kts 259°
2026-04-23 17:19 39.46936 19.36312 19752 ft 367 kts 258°
2026-04-23 17:19 39.46241 19.33130 19903 ft 369 kts 258°
2026-04-23 17:19 39.45524 19.29877 19930 ft 383 kts 258°
2026-04-23 17:19 39.44782 19.26537 19935 ft 396 kts 257°
2026-04-23 17:20 39.44004 19.23044 19930 ft 406 kts 257°
2026-04-23 17:20 39.42430 19.15930 20111 ft 414 kts 257°
2026-04-23 17:21 39.40819 19.08776 19985 ft 415 kts 257°
2026-04-23 17:21 39.40286 19.06401 19986 ft 415 kts 257°
2026-04-23 17:21 39.38673 18.99220 19992 ft 416 kts 257°
2026-04-23 17:22 39.37596 18.94434 19992 ft 416 kts 257°
2026-04-23 17:22 39.35975 18.87235 20137 ft 417 kts 257°
2026-04-23 17:23 39.34345 18.80050 19994 ft 417 kts 257°
2026-04-23 17:23 39.33528 18.76454 19995 ft 417 kts 257°
2026-04-23 17:23 39.31890 18.69250 20001 ft 418 kts 257°
2026-04-23 17:24 39.31067 18.65641 20003 ft 418 kts 257°
2026-04-23 17:24 39.30243 18.62035 20006 ft 418 kts 257°
2026-04-23 17:24 39.28602 18.54865 20006 ft 419 kts 257°
2026-04-23 17:25 39.26944 18.47648 20006 ft 419 kts 257°
2026-04-23 17:25 39.26111 18.44027 20013 ft 420 kts 257°
2026-04-23 17:26 39.24444 18.36803 20011 ft 421 kts 257°
2026-04-23 17:26 39.22767 18.29562 20020 ft 421 kts 257°
2026-04-23 17:27 39.21087 18.22326 20014 ft 422 kts 257°
2026-04-23 17:27 39.20243 18.18697 20019 ft 422 kts 257°
2026-04-23 17:27 39.19397 18.15069 20020 ft 423 kts 257°
2026-04-23 17:27 39.18547 18.11428 20021 ft 423 kts 256°
2026-04-23 17:28 39.17699 18.07802 20018 ft 423 kts 256°
2026-04-23 17:28 39.16850 18.04178 20019 ft 423 kts 256°
2026-04-23 17:28 39.15997 18.00542 20023 ft 423 kts 256°
2026-04-23 17:28 39.15152 17.96946 20024 ft 424 kts 256°
2026-04-23 17:29 39.14296 17.93308 20021 ft 424 kts 256°
2026-04-23 17:29 39.13442 17.89686 20023 ft 424 kts 256°
2026-04-23 17:29 39.11724 17.82414 20024 ft 424 kts 256°
2026-04-23 17:30 39.11236 17.79992 20023 ft 422 kts 262°
2026-04-23 17:30 39.09922 17.71316 20031 ft 423 kts 261°
2026-04-23 17:30 39.09330 17.67597 20033 ft 423 kts 261°
2026-04-23 17:31 39.08733 17.63887 20031 ft 423 kts 261°
2026-04-23 17:31 39.08142 17.60226 20029 ft 423 kts 261°
2026-04-23 17:31 39.07539 17.56506 20033 ft 424 kts 261°
2026-04-23 17:31 39.06927 17.52741 20031 ft 424 kts 261°
2026-04-23 17:32 39.06322 17.49028 20034 ft 425 kts 261°
2026-04-23 17:32 39.05721 17.45343 20032 ft 425 kts 261°
2026-04-23 17:32 39.05113 17.41622 20040 ft 425 kts 261°
2026-04-23 17:32 39.04502 17.37897 20043 ft 425 kts 261°
2026-04-23 17:33 39.03889 17.34165 20042 ft 426 kts 261°
2026-04-23 17:33 39.03276 17.30438 20046 ft 425 kts 261°
2026-04-23 17:33 39.02663 17.26721 20046 ft 426 kts 261°
2026-04-23 17:33 39.02046 17.22987 20047 ft 426 kts 261°
2026-04-23 17:34 39.01429 17.19261 20047 ft 426 kts 261°
2026-04-23 17:34 39.00873 17.15909 20031 ft 426 kts 261°
2026-04-23 17:34 38.99617 17.08602 20039 ft 429 kts 256°
2026-04-23 17:35 38.99055 17.06688 20058 ft 431 kts 250°
2026-04-23 17:35 38.96705 16.99577 20057 ft 432 kts 250°
2026-04-23 17:35 38.95522 16.96023 20056 ft 432 kts 250°
2026-04-23 17:36 38.94340 16.92479 20048 ft 432 kts 250°
2026-04-23 17:36 38.93154 16.88929 20053 ft 432 kts 250°
2026-04-23 17:36 38.91967 16.85383 20051 ft 432 kts 250°
2026-04-23 17:36 38.90919 16.82254 20045 ft 433 kts 250°
2026-04-23 17:37 38.89704 16.78632 20041 ft 433 kts 250°
2026-04-23 17:37 38.88530 16.75135 20046 ft 432 kts 250°
2026-04-23 17:37 38.86145 16.68044 20038 ft 433 kts 250°
2026-04-23 17:38 38.84948 16.64494 20048 ft 433 kts 250°
2026-04-23 17:38 38.83736 16.60909 20047 ft 432 kts 250°
2026-04-23 17:38 38.82553 16.57414 20038 ft 433 kts 250°
2026-04-23 17:38 38.81352 16.53867 20042 ft 432 kts 250°
2026-04-23 17:39 38.80155 16.50340 20029 ft 432 kts 250°
2026-04-23 17:39 38.78951 16.46797 20028 ft 432 kts 250°
2026-04-23 17:39 38.77752 16.43270 20027 ft 432 kts 250°
2026-04-23 17:39 38.76545 16.39728 20033 ft 432 kts 250°
2026-04-23 17:40 38.75445 16.36152 20024 ft 429 kts 257°
2026-04-23 17:40 38.74645 16.32464 20033 ft 429 kts 257°
2026-04-23 17:40 38.73854 16.28783 20037 ft 430 kts 257°
2026-04-23 17:40 38.73063 16.25095 20032 ft 430 kts 258°
2026-04-23 17:41 38.72274 16.21416 20035 ft 426 kts 257°
2026-04-23 17:41 38.70718 16.14174 19892 ft 416 kts 258°
2026-04-23 17:41 38.69952 16.10617 19164 ft 406 kts 258°
2026-04-23 17:42 38.68746 16.05027 18074 ft 380 kts 258°
2026-04-23 17:42 38.67800 16.00649 17103 ft 389 kts 258°
2026-04-23 17:42 38.67074 15.97304 16461 ft 394 kts 258°
2026-04-23 17:43 38.66332 15.93887 15831 ft 394 kts 258°
2026-04-23 17:43 38.65601 15.90525 15203 ft 391 kts 258°
2026-04-23 17:43 38.64839 15.87197 14562 ft 390 kts 252°
2026-04-23 17:43 38.63489 15.84190 13865 ft 394 kts 233°
2026-04-23 17:44 38.61455 15.81925 13226 ft 398 kts 214°
2026-04-23 17:44 38.58881 15.80533 12624 ft 401 kts 197°
2026-04-23 17:44 38.53564 15.78837 11877 ft 373 kts 197°
2026-04-23 17:45 38.51909 15.78314 11760 ft 356 kts 197°
2026-04-23 17:45 38.46705 15.76681 11330 ft 308 kts 197°
2026-04-23 17:45 38.44681 15.76047 11172 ft 291 kts 197°
2026-04-23 17:46 38.41549 15.75067 10942 ft 273 kts 197°
2026-04-23 17:46 38.40306 15.74678 10845 ft 282 kts 197°
2026-04-23 17:46 38.37706 15.73866 10649 ft 290 kts 197°
2026-04-23 17:47 38.36402 15.73459 10557 ft 291 kts 197°
2026-04-23 17:47 38.34438 15.72846 10423 ft 291 kts 197°
2026-04-23 17:47 38.30511 15.71622 10132 ft 290 kts 196°
2026-04-23 17:48 38.28552 15.71013 9825 ft 291 kts 196°
2026-04-23 17:48 38.26585 15.70401 9513 ft 290 kts 196°
2026-04-23 17:48 38.24629 15.69792 9214 ft 288 kts 196°
2026-04-23 17:48 38.22686 15.69189 8912 ft 286 kts 196°
2026-04-23 17:49 38.20771 15.68593 8596 ft 284 kts 195°
2026-04-23 17:49 38.19070 15.68066 8347 ft 281 kts 195°
2026-04-23 17:49 38.17181 15.67479 8069 ft 279 kts 195°
2026-04-23 17:49 38.15906 15.67083 7870 ft 278 kts 196°
2026-04-23 17:50 38.13425 15.66314 7497 ft 276 kts 195°
2026-04-23 17:50 38.09718 15.65164 6906 ft 274 kts 195°
2026-04-23 17:50 38.07903 15.64507 6675 ft 267 kts 207°
2026-04-23 17:51 38.06435 15.63216 6507 ft 248 kts 221°
2026-04-23 17:51 38.05114 15.61900 6384 ft 232 kts 220°
2026-04-23 17:51 38.02719 15.59504 6150 ft 216 kts 221°
2026-04-23 17:52 38.01517 15.58293 6056 ft 223 kts 221°
2026-04-23 17:52 37.99083 15.55835 5797 ft 226 kts 221°
2026-04-23 17:52 37.97778 15.54722 5578 ft 227 kts 201°
2026-04-23 17:53 37.94624 15.54285 5024 ft 228 kts 186°
2026-04-23 17:53 37.93042 15.54135 4735 ft 228 kts 185°
2026-04-23 17:53 37.91478 15.54314 4402 ft 227 kts 156°
2026-04-23 17:54 37.90320 15.55573 4061 ft 217 kts 116°
2026-04-23 17:54 37.89981 15.57343 3823 ft 210 kts 85°
2026-04-23 17:54 37.91052 15.60588 3308 ft 203 kts 30°
2026-04-23 17:55 37.93553 15.61847 3003 ft 182 kts 18°
2026-04-23 17:55 37.94716 15.62368 2817 ft 173 kts 18°
2026-04-23 17:55 37.95835 15.62851 2627 ft 167 kts 17°
2026-04-23 17:56 37.96900 15.63301 2478 ft 162 kts 17°
2026-04-23 17:56 37.99040 15.64193 2482 ft 151 kts 17°
2026-04-23 17:56 38.00014 15.64618 2216 ft 156 kts 18°
2026-04-23 17:57 38.00961 15.65082 2017 ft 137 kts 21°
2026-04-23 17:57 38.01841 15.65556 1748 ft 138 kts 20°
2026-04-23 17:57 38.03734 15.66175 1103 ft 141 kts
2026-04-23 17:58 38.04705 15.66272 823 ft 138 kts 359°
2026-04-23 17:58 38.05635 15.66096 489 ft 133 kts 339°
2026-04-23 17:58 38.06462 15.65588 141 ft 132 kts 328°
2026-04-23 17:58 38.07243 15.65075 53 ft 106 kts 332°
2026-04-23 17:59 38.07658 15.64806 69 ft 33 kts 333°
2026-04-23 17:59 38.07847 15.64683 93 ft 28 kts 334°
2026-04-23 17:59 38.07923 15.64641 97 ft 8 kts 340°
2026-04-23 17:59 38.07988 15.64607 101 ft 11 kts 334°
2026-04-23 18:00 38.08052 15.64570 103 ft 11 kts 333°
2026-04-23 18:00 38.08101 15.64539 105 ft 2 kts 333°
2026-04-23 18:00 38.08123 15.64525 107 ft 0 kts 324°
2026-04-23 18:00 38.08122 15.64520 107 ft 0 kts 271°
2026-04-23 18:01 38.08116 15.64513 105 ft 2 kts 205°
2026-04-23 18:01 38.08034 15.64559 102 ft 32 kts 152°
2026-04-23 18:01 38.07751 15.64745 88 ft 56 kts 152°
2026-04-23 18:01 38.07462 15.64932 62 ft 39 kts 153°
2026-04-23 18:02 38.07385 15.65005 59 ft 1 kts 103°
2026-04-23 18:02 38.07395 15.65041 62 ft 6 kts 58°
2026-04-23 18:02 38.07412 15.65076 66 ft 0 kts 58°
2026-04-23 18:07 38.07411 15.65082 60 ft 1 kts 108°
2026-04-23 18:07 38.07399 15.65098 63 ft 5 kts 134°
2026-04-23 18:07 38.07397 15.65100 64 ft 0 kts 136°
2026-04-23 18:07 38.07397 15.65102 66 ft 0 kts 120°
2026-04-23 18:08 38.07397 15.65105 66 ft 1 kts 91°
2026-04-23 18:08 38.07403 15.65136 67 ft 3 kts 70°
2026-04-23 18:08 38.07403 15.65142 67 ft 1 kts 94°
2026-04-23 18:08 38.07359 15.65164 66 ft 0 kts 121°
2026-04-23 18:09 38.07399 15.65147 67 ft 0 kts 243°